Wind_Speed
13 20 23 21 21 21 19 18 17 16 15 14 14 14 12 10 10 10 9 7 6 5 5 6 6 4 5 5 4 4 4 4 4 5 5 4 4 3 3 3 5 5 4 4 5 6 6 5 5 6 6 6 7 9 9 10 11 11 11 12 12 14 18 20 21 21 22 23 23 22 22 18 18 19 17 16 15 15 15 15 17 17 17 16 15
13 20 23 23 23 22 21 20 19 18 18 17 16 15 13 12 12 11 9 8 7 6 6 6 6 6 5 6 5 5 5 5 5 4 3 2 2 2 2 1 0 1 2 3 2 2 3 3 3 4 5 5 6 7 6 7 8 9 9 9 10 11 14 18 20 21 21 22 21 20 20 20 22 22 21 21 16 13 15 15 17 18 17 16 15
15 18 23 26 25 24 24 23 21 20 20 19 18 17 15 14 13 12 10 8 7 7 6 6 7 7 7 7 7 7 7 7 6 4 3 2 1 1 1 2 5 6 4 4 3 2 3 3 3 4 5 5 4 4 4 4 6 6 6 7 8 8 10 13 15 17 18 20 20 16 14 13 18 18 19 22 18 14 14 14 15 16 16 16 15
16 18 22 27 28 27 27 26 24 24 23 22 21 20 18 16 14 12 10 10 9 7 7 7 7 7 8 9 9 8 7 7 6 5 5 4 4 3 3 5 8 8 6 6 5 4 4 5 4 4 4 4 3 2 2 3 3 3 3 4 6 6 7 8 9 11 13 16 15 13 11 9 11 10 11 16 14 11 12 12 13 14 14 14 15
16 17 22 28 31 31 30 28 27 26 25 24 23 22 20 17 15 13 11 11 10 9 9 8 7 6 7 8 9 9 8 8 7 6 7 6 5 5 5 5 7 8 8 7 6 5 5 5 5 5 4 4 4 3 2 2 2 1 1 2 3 4 4 4 6 7 9 12 12 11 10 8 9 8 8 11 10 11 12 9 11 13 12 13 15
16 18 21 26 31 33 32 31 30 29 27 26 26 24 21 17 16 14 13 13 13 11 10 9 8 6 6 7 9 9 9 9 8 7 7 7 6 6 7 7 7 7 8 7 6 6 6 5 6 5 4 4 4 4 3 3 3 1 1 1 1 1 1 2 3 4 4 7 10 11 9 8 9 9 9 8 10 14 15 14 13 10 10 12 11
15 17 20 22 26 31 34 35 33 31 29 28 28 26 22 19 17 16 15 14 14 13 12 11 9 7 6 7 9 10 9 9 9 9 8 7 7 7 7 7 7 8 7 7 7 6 6 5 6 5 4 4 4 4 3 3 3 2 2 2 1 1 0 1 2 2 2 3 5 6 6 7 7 8 9 8 8 10 14 18 17 12 12 13 10
12 15 18 21 23 28 34 37 36 33 31 30 30 28 25 22 19 18 16 16 16 15 14 12 10 9 9 10 11 10 9 10 9 9 8 7 7 7 7 7 7 8 7 7 8 8 8 7 7 7 7 7 6 5 5 4 3 2 2 2 3 3 1 1 1 2 1 2 3 4 4 4 5 5 7 8 7 6 8 12 13 12 14 14 13
10 12 15 17 21 25 29 34 37 36 34 33 32 29 27 24 21 19 18 17 17 16 15 14 12 11 11 13 13 11 10 10 9 8 8 7 6 7 7 7 7 7 6 7 7 7 8 8 8 8 8 8 7 7 7 7 6 6 5 4 3 1 1 3 3 2 2 3 2 3 4 3 4 5 6 6 6 6 7 8 9 11 12 12 13
10 13 15 16 18 21 23 28 33 37 37 35 34 32 30 27 23 21 20 18 18 17 16 15 14 14 14 14 15 14 12 11 10 9 8 7 6 6 6 6 6 6 5 5 6 6 7 7 7 6 6 6 6 6 7 7 7 7 7 7 7 6 4 2 1 2 4 5 4 3 3 3 4 5 5 5 6 7 8 9 11 12 13 14 15
10 12 15 16 17 18 20 23 28 34 37 38 37 35 32 29 26 23 21 19 19 18 17 17 16 17 17 16 16 15 14 13 11 10 9 8 7 6 6 6 5 4 4 4 4 4 5 5 6 5 5 4 5 5 6 6 6 6 7 7 8 7 7 6 5 3 2 2 3 3 3 4 5 4 4 4 5 6 7 8 9 11 13 15 17
10 10 12 14 14 16 20 23 24 29 34 38 39 37 33 31 28 25 23 21 20 20 19 19 18 19 19 18 17 16 14 13 12 11 10 8 7 7 7 7 6 5 4 3 3 3 3 3 4 4 4 4 4 4 5 5 6 6 7 7 8 8 8 7 7 6 5 4 3 2 3 4 5 5 6 6 5 5 6 7 8 9 11 12 13
8 8 8 8 7 12 17 20 22 25 31 36 39 38 35 32 30 27 25 23 22 22 21 20 19 20 20 19 18 17 15 14 12 11 10 9 8 8 7 7 7 6 5 4 3 2 2 2 2 2 2 3 3 3 4 5 6 6 6 7 7 7 7 7 7 7 6 5 5 5 3 3 4 5 6 6 7 6 6 6 7 8 10 11 11
6 7 6 5 2 7 12 15 18 22 27 32 37 38 35 33 31 29 27 25 23 23 22 22 20 20 21 21 20 19 17 15 13 11 10 10 9 9 8 8 8 7 6 6 4 3 3 2 2 2 1 1 2 2 3 4 4 5 5 6 6 7 7 7 6 6 6 5 5 5 5 5 6 7 6 5 5 5 4 5 7 8 10 11 11
8 7 7 5 2 3 7 10 13 16 22 29 34 35 34 33 32 31 29 27 25 24 23 23 22 21 21 22 21 20 18 17 15 13 12 11 10 10 10 9 9 8 8 8 7 6 5 5 4 3 2 2 1 0 1 2 3 3 4 5 5 7 8 8 8 8 7 6 6 5 4 5 6 6 6 6 5 6 6 6 7 8 9 10 9
10 9 9 8 4 2 4 7 8 10 15 22 27 30 30 30 31 32 31 29 27 25 24 24 23 22 22 22 22 22 20 19 17 16 14 13 12 12 11 11 10 9 10 10 9 8 8 7 6 6 5 4 3 2 2 2 2 2 3 4 5 6 7 9 9 9 10 9 8 7 4 4 6 5 5 6 7 8 8 7 7 7 9 10 9
13 11 10 9 6 4 4 4 5 5 7 11 16 20 22 23 25 29 30 30 28 26 25 25 25 24 23 22 22 22 22 21 20 18 16 14 14 13 13 13 12 11 12 11 10 9 9 9 8 8 7 7 6 5 4 4 4 4 4 5 5 6 6 7 8 9 10 10 10 9 6 6 7 6 5 7 8 8 8 7 8 8 8 10 11
14 14 12 10 9 7 7 6 5 4 4 5 6 8 11 14 17 22 26 29 29 27 27 27 26 26 25 23 23 22 22 22 21 20 18 17 16 15 15 15 14 14 13 13 12 11 11 10 10 10 9 9 8 7 7 6 5 6 6 6 6 6 6 7 7 8 9 9 10 9 8 7 9 9 8 8 8 8 8 8 9 8 9 10 11
14 15 14 13 11 10 10 9 8 6 5 5 6 5 5 8 12 16 20 24 27 29 28 28 28 28 27 26 24 23 23 22 22 22 21 19 18 18 17 16 16 16 16 15 14 13 13 12 12 12 11 11 11 10 9 7 7 7 7 7 8 7 6 7 8 8 9 9 10 10 9 9 11 10 9 9 9 9 8 8 9 9 10 12 12
13 15 15 15 14 12 11 10 9 8 8 8 9 10 8 7 8 11 15 17 22 26 27 28 29 29 28 27 27 26 25 24 23 23 22 21 20 20 19 18 18 17 17 17 17 16 16 14 14 14 13 13 13 12 11 9 9 9 8 8 9 8 6 6 8 9 9 8 8 10 9 11 13 10 9 11 10 10 11 10 10 10 11 12 13
13 15 16 17 16 15 14 12 11 10 9 8 8 10 10 9 8 7 9 11 14 18 21 24 27 29 30 29 28 28 27 27 26 25 25 24 23 22 21 21 20 19 19 19 19 19 18 17 16 15 15 15 15 14 13 12 11 11 10 10 11 9 6 6 8 9 10 10 9 9 8 11 14 13 12 11 9 11 13 11 10 10 11 12 13
13 14 16 17 17 17 17 16 14 13 11 10 7 7 7 8 8 6 6 9 9 11 13 15 19 23 26 27 28 29 29 30 30 29 29 27 26 25 24 23 22 22 21 21 21 21 20 19 18 18 17 17 16 16 15 14 13 14 14 13 13 11 9 9 9 8 8 11 12 11 10 12 15 16 15 13 12 13 13 10 10 11 12 13 13
12 13 14 16 16 16 17 17 17 16 14 12 10 7 6 6 5 4 6 9 11 11 11 12 12 16 19 20 22 24 25 27 29 30 31 31 30 29 28 28 26 24 24 23 22 22 22 21 20 20 19 19 18 18 17 16 16 16 16 16 15 13 12 12 11 9 8 10 13 13 13 14 16 17 18 17 16 16 15 13 13 13 14 15 15
10 11 13 13 13 14 14 15 16 16 16 15 13 11 8 7 5 3 3 6 8 10 12 11 10 12 13 14 16 20 21 22 23 24 27 28 29 29 29 30 29 28 27 26 25 25 24 23 23 21 21 21 21 20 19 18 18 17 17 17 16 15 14 14 13 12 11 12 14 14 14 15 17 18 20 20 18 17 17 17 16 15 14 15 16
8 9 11 11 12 13 13 13 13 14 15 15 14 13 10 8 7 5 4 2 2 4 7 8 9 12 13 13 16 19 19 18 17 17 19 22 23 23 23 25 26 28 29 29 28 26 23 23 23 23 23 23 23 22 21 20 20 20 19 18 18 17 16 16 16 15 15 16 16 17 17 18 19 20 21 21 21 20 20 19 18 17 15 14 16
7 8 9 10 11 11 11 12 12 12 12 12 12 11 9 8 6 5 5 4 3 2 2 3 5 8 9 10 13 15 15 15 15 15 17 17 17 17 18 18 19 23 27 29 28 27 25 24 24 25 25 25 25 24 23 22 23 23 22 21 21 20 19 19 18 18 18 18 19 19 21 22 22 23 24 24 23 23 22 22 21 20 18 17 18
6 6 7 8 9 10 10 10 10 10 10 10 9 9 7 7 6 5 4 4 4 3 2 2 3 4 4 6 7 9 12 14 15 17 19 18 18 18 17 16 17 19 24 27 26 26 28 28 28 28 27 27 27 26 24 24 25 25 24 24 23 22 22 21 20 19 19 20 20 20 22 23 25 26 26 26 25 24 24 23 22 22 21 20 20
5 5 6 7 7 7 8 8 8 8 8 7 8 7 6 6 7 7 6 6 6 6 6 6 6 6 6 6 6 7 9 10 11 15 19 20 21 21 17 15 16 19 22 24 23 24 28 29 29 29 29 28 27 27 26 26 26 26 25 24 24 23 22 22 21 21 21 21 21 22 23 25 26 27 27 26 25 25 25 25 23 23 22 21 20
5 5 5 5 5 6 6 6 7 7 7 7 7 7 7 7 7 8 9 8 8 8 8 8 8 9 9 9 9 10 10 10 10 12 14 15 16 17 16 15 16 17 19 20 20 23 27 29 29 30 28 26 26 27 27 28 27 26 26 24 24 24 23 22 22 22 22 22 23 24 26 27 28 28 28 27 26 25 25 26 25 24 24 23 22
5 4 4 4 4 5 5 6 6 6 7 7 8 8 9 9 9 10 10 11 11 10 10 10 10 11 12 12 13 13 13 13 12 12 13 13 12 12 14 15 16 17 17 18 19 21 24 25 26 27 25 25 28 31 31 30 28 27 26 24 24 24 23 22 22 22 22 23 24 26 28 30 31 31 30 29 28 27 26 27 26 25 25 25 24
4 4 3 3 4 5 5 6 7 8 8 8 9 10 10 11 12 12 12 13 13 13 13 12 12 12 13 13 14 15 15 15 15 14 15 15 14 13 12 13 15 17 18 18 19 20 21 20 20 23 25 29 34 35 33 31 28 26 24 23 23 23 22 22 21 22 23 24 26 28 30 31 32 32 31 31 30 30 29 29 28 28 27 27 27
4 3 3 3 3 4 5 6 7 8 8 9 10 11 11 12 13 14 14 14 15 15 15 14 14 14 14 14 14 15 16 16 16 15 15 17 17 17 15 13 13 15 17 19 20 20 20 20 22 26 31 34 37 36 32 30 28 25 24 22 22 22 21 20 21 22 24 25 27 29 30 31 31 32 31 31 31 32 32 32 32 31 31 30 29
4 3 2 2 3 3 4 6 7 7 8 9 10 11 12 13 14 15 15 15 16 16 17 16 16 16 16 16 16 15 16 16 17 17 17 17 18 19 19 17 14 13 14 17 19 18 17 19 24 30 34 35 36 35 33 30 27 25 23 21 21 21 20 20 21 23 25 27 28 29 29 30 31 32 32 32 31 32 32 33 33 33 33 32 32
3 2 2 2 3 3 4 6 6 7 10 11 11 13 14 15 15 15 15 16 15 15 16 17 18 17 17 18 17 17 17 17 17 18 18 18 18 18 20 18 14 12 15 17 18 17 17 20 26 32 34 36 36 35 32 29 26 24 22 20 19 20 19 21 23 25 27 28 28 28 29 29 30 31 31 31 31 31 31 31 31 31 30 29 30
1 1 3 3 4 4 5 6 8 10 12 12 12 14 17 17 17 18 18 17 16 16 15 16 18 18 18 18 18 18 18 18 18 18 19 19 19 19 20 18 14 13 15 16 16 17 19 23 29 32 35 36 35 32 29 26 23 21 19 18 19 19 20 23 25 26 27 28 28 29 29 30 30 31 30 31 31 30 30 31 31 31 31 30 29
3 4 4 5 6 6 7 8 10 10 11 11 12 15 17 19 20 20 20 19 19 19 18 18 18 18 18 17 17 17 18 18 18 19 19 20 20 21 20 18 14 13 14 15 16 18 22 25 29 33 35 35 32 28 25 22 19 18 16 17 19 20 21 24 25 26 27 28 28 29 29 30 30 30 30 31 32 30 30 30 31 31 29 28 27
4 5 6 7 8 8 9 10 11 11 12 13 14 15 18 20 21 21 20 19 19 19 19 19 18 18 18 18 18 17 17 18 18 19 19 20 20 20 19 16 13 13 15 17 18 19 22 26 30 33 34 32 28 24 21 18 17 16 14 16 17 17 19 22 24 25 26 27 28 29 29 30 30 30 30 30 30 29 28 27 26 26 24 23 22
6 7 8 8 8 9 10 11 13 13 13 13 14 16 18 20 20 20 20 18 18 19 20 19 18 18 18 19 19 18 17 18 18 18 18 19 19 19 17 14 13 15 18 20 19 19 22 27 31 31 30 26 23 20 17 15 15 15 14 15 15 16 18 21 22 23 24 25 28 30 30 30 29 28 28 28 27 27 26 22 21 22 23 23 22
8 9 9 10 11 13 14 14 14 14 15 15 16 18 19 20 20 20 19 18 19 20 20 20 20 20 20 20 21 21 21 20 20 19 18 19 18 17 18 17 16 16 19 20 20 21 24 28 29 28 25 21 18 15 13 13 14 14 15 16 16 17 18 19 19 20 22 24 26 27 26 27 27 26 27 27 26 25 24 22 21 22 23 24 23
11 11 11 13 13 14 14 13 14 15 17 18 18 18 19 20 20 20 19 19 19 20 19 21 21 21 21 21 22 23 24 24 23 20 19 18 19 20 22 20 18 18 19 20 20 24 28 29 26 22 19 16 13 11 11 11 12 14 16 16 16 16 17 18 19 21 23 25 25 22 20 21 23 26 28 28 27 26 26 25 23 22 24 25 23
13 14 16 16 15 14 15 15 15 17 18 18 19 19 19 20 20 20 20 20 20 19 19 20 21 21 21 22 23 24 25 24 22 19 19 20 22 22 21 20 19 19 20 21 24 27 28 26 21 16 13 11 9 9 9 9 11 13 14 14 14 14 16 19 21 23 24 24 23 20 19 19 23 26 27 27 27 26 27 27 26 26 27 28 27
15 16 17 17 17 16 16 17 17 17 17 18 18 19 20 21 21 20 20 20 20 20 20 21 22 22 23 23 24 24 23 21 17 17 20 23 23 20 18 17 18 19 22 25 27 26 24 21 17 14 11 8 6 7 8 8 8 9 10 11 13 14 17 20 22 23 24 24 23 22 20 20 23 27 28 27 27 25 26 27 29 30 30 30 30
17 17 16 16 17 17 17 17 17 17 17 17 18 20 20 20 20 20 20 20 20 20 21 22 23 23 23 23 21 21 20 17 15 17 21 21 20 18 16 16 19 24 27 27 25 22 19 16 13 10 7 5 4 5 5 4 5 7 9 11 13 15 17 19 21 23 24 24 24 22 20 21 25 28 27 26 25 24 25 26 27 27 27 26 26
18 18 17 16 17 17 17 18 18 17 17 17 18 18 19 19 20 21 20 20 20 21 22 23 23 23 23 22 20 18 16 14 16 18 19 18 18 18 18 21 25 27 27 25 21 17 15 12 10 8 6 5 3 2 1 3 4 7 9 11 13 15 17 18 21 22 22 22 22 22 23 25 27 28 26 25 24 23 22 23 23 22 23 23 24
18 18 17 17 17 17 17 18 18 18 18 18 17 18 18 19 20 20 20 20 20 21 22 23 23 23 22 19 17 15 14 15 16 17 17 18 20 21 25 28 29 27 24 22 20 18 16 15 14 12 10 8 6 4 5 6 7 8 10 12 14 16 18 20 22 23 22 22 23 25 28 29 29 28 26 24 22 21 21 22 22 21 21 21 21
19 18 17 17 17 17 18 19 19 19 19 18 17 18 18 18 18 18 19 20 21 22 22 22 21 19 17 16 15 15 15 15 14 15 18 21 25 29 31 30 27 25 23 23 23 22 20 18 16 14 11 9 8 7 7 9 11 12 14 16 18 20 22 24 25 24 22 22 24 27 30 29 26 25 23 21 20 19 20 20 19 18 18 18 18
19 18 18 18 19 18 19 19 19 19 18 18 18 17 17 17 17 17 18 19 20 21 20 18 17 15 15 16 15 15 14 14 15 19 23 28 32 33 32 29 27 26 25 25 24 23 21 19 17 14 11 8 7 7 8 10 12 13 15 17 19 21 23 24 23 21 20 22 26 28 26 23 20 20 19 19 19 19 18 17 16 15 15 16 16
20 19 19 20 20 20 19 19 19 19 18 17 17 16 16 16 16 16 17 18 18 17 16 15 15 16 16 14 13 13 14 19 23 27 31 33 32 31 30 29 27 25 25 24 22 22 20 17 15 12 10 8 8 8 11 13 14 15 16 16 18 20 21 21 21 21 23 26 26 23 18 16 15 16 16 16 16 16 16 15 16 16 16 16 17
21 21 21 21 20 21 20 19 19 18 17 16 16 16 15 14 14 16 16 15 14 14 14 14 15 15 13 13 16 21 27 32 34 35 34 32 29 27 27 27 25 23 22 22 21 20 19 16 14 12 11 10 10 11 13 14 15 16 17 18 19 20 21 21 22 23 25 24 20 15 14 14 14 15 15 15 15 16 16 16 16 16 16 16 17
22 22 22 21 20 20 19 19 18 17 16 16 16 15 14 12 13 14 13 10 11 12 11 12 12 14 19 25 31 36 38 37 34 33 33 31 29 27 26 26 25 22 20 19 18 18 17 15 14 13 12 12 12 12 14 15 17 17 18 18 19 20 21 22 22 23 22 18 14 13 14 14 14 15 16 16 16 16 17 17 16 16 17 17 18
23 22 22 22 21 19 19 19 18 16 15 15 14 14 14 13 13 12 7 5 7 9 11 14 18 24 30 34 36 36 35 34 33 33 33 32 30 28 25 23 22 19 17 16 15 15 14 13 13 13 13 13 13 14 15 16 17 18 18 19 19 20 21 22 23 22 19 13 12 14 15 14 14 15 16 16 17 17 17 18 18 19 19 20 20
Wind_Direction
185 204 204 202 207 203 200 202 201 201 202 207 212 215 217 223 230 237 239 237 230 206 181 168 163 162 154 153 151 143 144 138 135 139 141 152 157 176 208 230 241 236 225 221 233 230 219 224 217 220 239 242 244 244 239 234 229 230 236 234 230 231 229 228 229 230 231 234 235 237 240 241 247 250 249 251 250 238 232 231 230 229 231 232 234
192 210 209 205 210 209 206 207 206 205 207 209 214 218 220 224 231 236 236 235 225 198 182 175 165 159 156 154 149 139 137 131 133 149 159 180 192 215 239 254 222 141 158 177 200 220 196 194 191 195 217 232 243 241 232 224 218 222 234 239 236 230 229 232 232 230 233 236 236 242 245 245 247 247 247 252 249 235 229 231 231 230 232 232 234
197 211 213 209 212 213 212 212 210 210 212 214 217 219 221 224 230 233 232 230 222 200 186 182 168 159 158 156 150 147 149 147 151 158 152 141 127 98 92 99 100 98 104 127 129 142 148 141 147 168 191 206 225 224 209 202 204 212 221 230 233 228 229 233 233 231 234 239 241 243 243 246 247 246 249 247 237 230 233 234 235 236 235 233 233
204 209 215 215 214 215 217 215 214 214 215 215 218 220 219 222 228 230 229 225 215 200 192 188 173 160 158 155 150 150 152 150 148 143 133 123 108 94 92 101 109 112 109 110 114 122 121 120 124 133 155 165 171 174 173 175 180 194 199 210 221 228 236 235 232 229 231 239 240 234 230 238 246 249 260 247 225 224 238 237 236 236 234 232 232
214 210 216 220 220 219 219 218 217 217 217 217 218 220 218 219 224 225 224 221 210 199 197 192 177 168 165 159 153 149 146 143 140 135 130 124 113 101 93 97 111 118 118 117 117 117 114 117 120 116 124 129 124 129 143 130 115 153 170 192 218 220 237 251 244 231 228 233 227 218 220 232 244 243 258 264 250 238 237 236 239 240 238 237 236
224 219 220 225 226 224 222 221 220 219 218 219 221 221 219 219 222 222 220 216 208 198 197 194 181 173 172 169 159 149 146 145 146 145 138 129 120 111 103 100 104 111 118 124 126 125 123 123 126 125 126 130 135 143 152 141 123 141 147 93 273 228 237 281 272 247 237 237 225 215 212 219 236 232 229 260 272 254 243 238 232 224 223 230 234
231 228 226 225 226 227 227 224 221 220 220 221 223 223 219 218 221 220 217 214 208 199 195 194 181 168 170 173 162 152 153 155 156 152 144 136 124 113 107 103 100 101 105 108 108 110 111 115 121 120 116 116 126 139 151 159 157 176 188 171 185 196 285 322 291 272 275 271 245 227 221 221 228 224 216 231 256 256 251 247 240 229 229 235 231
238 235 232 228 225 229 232 231 225 221 222 223 224 223 219 218 219 219 216 213 208 201 196 193 180 168 168 169 164 160 161 162 160 155 149 142 130 118 112 108 103 101 99 97 95 94 96 96 96 96 93 89 89 96 102 102 105 114 141 172 190 200 201 203 245 287 305 297 285 275 267 251 238 225 215 219 233 250 256 252 248 247 248 252 247
254 249 243 235 229 229 232 236 232 224 222 225 225 223 220 218 218 218 215 214 209 202 199 193 180 172 173 172 171 171 170 168 167 166 161 151 140 130 124 117 111 108 104 100 99 96 95 92 88 86 85 85 82 77 78 76 71 70 71 74 85 131 190 199 211 242 256 238 253 281 282 278 268 259 243 237 245 257 259 251 246 249 253 257 258
274 266 259 249 237 230 227 231 234 228 223 225 227 225 221 219 218 218 215 214 210 203 201 196 182 176 179 181 182 181 179 177 177 181 177 168 160 147 136 131 123 117 112 107 103 101 99 96 92 86 81 82 80 73 72 67 62 62 62 61 59 56 57 65 180 230 250 243 234 256 283 279 270 272 273 268 265 266 267 265 262 265 266 262 261
294 284 276 267 251 235 221 216 226 230 225 224 227 226 222 220 219 218 216 215 213 207 202 199 188 181 183 186 190 191 189 188 190 194 193 187 183 171 159 155 149 138 127 119 115 109 104 100 97 93 86 80 72 69 70 68 65 63 60 58 54 48 47 44 40 37 351 292 254 234 240 250 243 244 254 257 262 268 276 280 279 281 281 276 271
312 305 295 286 263 232 215 207 216 229 226 222 226 226 222 221 220 218 216 215 215 211 205 203 195 187 187 190 195 199 199 199 201 204 204 201 199 193 182 175 174 171 160 146 139 127 116 108 103 101 97 90 84 76 74 71 66 60 55 51 46 41 37 34 31 27 21 13 339 281 247 245 240 235 240 240 243 250 264 278 281 283 285 284 279
329 324 317 304 268 219 209 206 209 221 224 221 224 226 222 220 221 219 217 216 217 214 208 206 201 193 192 194 198 204 207 208 208 212 215 209 206 210 204 193 192 193 190 188 180 167 159 139 121 123 119 110 106 94 82 75 67 62 55 46 39 35 31 26 24 19 14 10 357 346 335 291 274 270 263 255 253 252 259 274 278 278 280 279 277
356 355 352 340 274 206 206 205 201 211 220 219 222 227 225 221 221 221 219 217 218 218 213 209 206 200 198 198 201 207 212 215 213 216 221 214 210 222 221 207 206 209 208 210 210 205 208 214 206 192 180 150 121 103 88 73 64 55 47 42 31 22 21 19 16 16 13 9 3 353 347 335 322 317 312 299 284 277 273 275 280 283 280 278 278
26 28 26 24 32 178 189 195 195 206 216 217 220 225 226 222 221 222 221 219 219 220 218 214 210 206 204 203 206 209 214 220 220 218 222 221 221 231 229 217 215 216 215 219 223 223 226 236 242 242 243 243 242 116 72 61 57 42 27 26 17 7 6 5 4 5 4 4 5 0 354 339 327 325 323 315 300 286 278 275 283 291 289 283 279
36 38 41 41 49 119 159 180 190 206 218 220 222 226 228 226 223 222 222 222 222 223 223 220 215 212 210 208 209 212 215 220 223 225 225 224 227 235 235 229 221 216 220 228 231 229 232 241 250 257 262 265 272 286 314 349 5 8 0 356 356 356 356 356 355 354 355 358 356 359 3 335 324 326 316 302 292 286 286 283 282 286 292 291 287
40 42 47 50 59 83 111 144 163 183 207 219 226 233 236 233 228 226 224 224 224 225 226 225 220 218 217 214 214 216 218 221 225 230 230 228 230 234 238 239 232 223 228 240 241 237 238 243 249 256 263 269 275 284 295 310 326 330 329 329 331 335 341 347 347 346 348 351 350 353 352 333 331 331 314 305 300 295 291 285 279 279 282 286 291
47 49 51 54 62 77 89 96 111 139 166 183 203 226 237 234 231 230 229 228 230 229 229 229 226 224 223 221 220 220 222 225 227 231 233 232 234 235 238 242 241 235 237 244 246 244 246 247 252 258 262 266 271 277 284 295 310 313 311 310 311 317 321 328 335 340 341 342 343 346 345 335 334 333 324 319 317 311 305 294 287 282 275 275 280
50 52 54 57 62 76 89 93 98 116 138 148 151 161 197 221 227 231 232 233 234 234 234 234 232 231 229 228 227 226 227 228 230 233 235 235 236 238 239 241 244 243 243 245 246 248 251 252 256 262 265 268 270 271 276 285 294 301 304 302 304 309 311 316 325 330 334 339 339 342 342 334 335 338 330 324 324 317 309 300 289 281 275 273 273
52 57 59 61 64 72 85 91 96 110 128 140 147 148 158 191 214 226 234 236 239 240 240 240 240 238 236 235 234 234 234 235 235 237 238 240 241 243 244 244 244 245 246 247 247 249 252 254 256 261 265 267 269 270 273 277 283 290 293 289 295 304 303 306 315 321 328 335 338 340 336 329 335 340 329 326 328 319 314 311 297 285 277 275 274
58 62 63 65 66 68 74 81 87 98 109 120 139 146 154 176 187 202 223 228 238 248 249 248 248 247 244 242 241 241 242 242 243 243 244 245 246 249 251 251 250 249 247 248 249 249 251 253 255 258 261 264 266 268 270 273 276 280 282 282 289 295 287 285 300 311 319 323 330 334 326 322 329 333 330 330 323 312 315 314 299 288 279 276 274
65 67 68 68 67 67 69 74 81 86 88 94 110 125 141 168 178 185 198 198 214 240 247 244 250 255 252 249 247 247 248 249 250 251 251 251 251 252 254 255 255 254 250 249 248 249 250 251 254 256 257 259 261 263 265 267 268 271 277 280 284 285 277 278 290 300 306 313 322 328 321 318 324 328 330 328 319 313 314 303 288 282 276 273 271
75 74 73 71 70 70 69 70 74 80 85 90 93 95 108 133 156 181 189 189 200 215 219 219 236 252 252 249 246 246 250 253 255 256 256 256 256 256 257 258 259 258 255 251 248 248 249 249 251 252 253 254 256 259 263 264 264 267 272 275 277 277 275 279 287 292 295 303 313 320 319 318 322 325 325 325 321 317 314 304 294 286 278 276 274
85 81 78 75 73 72 69 67 68 70 75 78 78 79 86 95 101 125 167 194 209 217 218 219 233 246 246 242 237 238 245 250 252 254 256 256 256 257 259 261 262 261 258 253 248 247 247 246 246 247 248 251 255 259 263 263 261 263 266 271 274 274 273 275 279 283 288 296 304 310 313 315 318 320 321 322 319 313 310 307 302 294 287 283 280
93 88 84 80 75 71 68 66 64 63 65 66 67 68 71 77 80 81 82 100 177 206 213 220 240 251 252 251 243 239 241 243 244 246 248 252 253 253 255 258 260 259 256 252 247 243 238 236 240 244 246 251 254 256 260 260 259 261 262 266 270 272 273 274 275 280 286 291 298 304 308 311 315 317 318 318 314 311 310 308 303 297 288 280 277
101 93 86 80 76 72 68 66 62 61 61 60 60 58 57 59 59 60 59 56 63 78 140 195 235 250 254 258 253 247 245 244 243 241 239 245 250 248 247 250 251 250 253 254 251 246 241 234 235 241 245 248 250 251 254 255 255 258 260 262 266 269 270 271 273 278 284 289 295 301 305 309 313 315 316 315 313 312 310 308 304 300 293 285 281
109 95 87 80 76 71 68 67 63 59 59 58 56 51 47 43 35 25 14 3 356 359 354 310 286 273 257 256 258 259 259 254 250 246 244 247 253 252 247 244 241 244 253 257 253 249 247 241 238 240 241 242 244 245 246 247 250 254 256 260 264 266 267 268 270 274 278 285 291 296 301 305 308 311 313 314 313 311 309 306 304 301 297 292 287
124 104 89 78 74 68 63 62 58 53 49 47 43 33 24 21 16 6 354 344 336 331 323 313 304 294 283 277 275 277 276 270 266 261 257 254 253 252 248 242 240 242 251 255 250 246 245 243 241 239 234 231 234 236 238 240 243 247 250 256 260 262 264 266 270 274 278 284 290 295 299 301 303 306 308 309 307 306 305 303 301 298 294 290 286
134 111 92 77 68 61 53 49 46 40 32 26 21 9 357 352 351 347 342 337 331 326 320 315 310 302 295 289 284 281 281 283 285 281 273 262 252 248 244 238 236 238 246 249 245 242 241 240 239 235 226 222 224 226 231 234 236 240 246 252 257 258 260 263 268 275 280 286 293 298 301 301 301 303 305 305 304 303 302 300 299 297 293 288 284
136 109 92 75 58 45 34 24 15 13 11 7 3 358 351 344 338 334 335 332 327 323 318 313 310 306 301 295 290 286 282 281 281 283 283 278 266 251 240 234 237 239 242 244 241 240 240 235 232 227 217 213 219 223 228 233 236 240 245 249 253 255 257 261 268 275 283 290 295 299 302 303 303 304 304 303 303 302 301 299 297 294 290 286 281
140 111 91 72 55 39 28 17 3 354 351 348 347 347 346 340 334 332 332 328 325 323 320 316 311 307 302 299 296 293 290 286 281 279 279 278 276 266 249 240 241 242 241 241 239 237 237 230 221 217 217 222 228 231 234 238 240 242 245 248 252 255 259 265 272 279 286 292 297 300 303 304 304 305 305 305 305 304 302 299 296 293 289 284 280
137 114 91 68 46 28 18 9 360 354 350 341 334 334 334 329 325 325 325 322 321 319 318 318 315 311 306 300 295 292 291 289 286 282 277 274 273 271 264 254 245 244 245 242 236 231 230 224 218 222 229 234 236 236 237 238 239 242 246 250 253 257 263 270 277 283 289 294 298 301 302 303 303 304 305 306 305 304 303 300 297 294 290 286 282
131 112 89 56 30 12 359 353 351 348 341 332 327 325 324 322 322 325 325 323 320 316 314 314 313 312 309 303 297 292 288 286 285 284 280 275 271 268 267 262 250 245 243 235 230 226 221 217 221 228 233 234 234 234 235 236 239 243 246 248 253 259 267 275 282 287 292 296 299 301 301 302 304 305 306 306 305 303 301 299 297 295 293 290 288
125 98 57 30 11 351 343 342 338 332 329 330 330 325 323 324 325 325 324 323 318 312 310 310 309 307 305 302 299 295 291 288 284 281 279 276 272 267 267 261 248 239 238 231 224 219 215 219 226 229 230 229 229 230 231 233 237 240 243 247 255 264 274 281 286 291 294 297 299 300 301 302 303 303 304 303 301 299 296 293 291 290 288 286 286
95 27 3 358 350 337 331 328 326 328 329 330 327 322 322 323 323 322 322 320 316 311 308 307 305 303 300 298 297 295 293 291 286 280 275 272 268 266 265 259 243 236 238 232 221 219 223 228 229 228 227 226 224 225 227 230 233 238 243 252 262 273 282 287 290 294 296 298 299 299 300 301 302 302 301 298 295 293 290 288 287 284 281 278 275
345 340 338 334 330 327 321 320 323 325 324 322 318 316 318 319 320 321 321 318 314 312 310 306 301 298 295 293 292 290 289 288 284 280 275 271 267 263 261 254 241 232 233 228 220 222 229 231 228 225 224 221 219 220 223 226 233 241 250 263 274 284 290 292 296 298 299 299 300 300 301 301 301 300 299 296 293 290 288 287 286 283 281 277 273
335 329 328 326 323 322 318 317 321 319 317 317 315 313 314 315 317 318 317 313 309 308 308 304 298 293 291 288 287 286 285 283 281 278 275 271 267 261 256 248 235 230 233 230 223 225 230 229 224 220 217 216 214 216 219 225 236 249 260 274 284 290 293 296 299 300 301 302 301 301 301 301 300 299 297 293 291 291 290 288 285 283 280 276 274
327 322 322 319 314 313 312 312 314 314 315 314 311 309 309 309 310 311 308 304 301 302 301 297 292 290 287 285 284 282 280 279 278 276 272 268 265 261 252 238 227 229 232 227 221 222 223 220 215 210 208 209 210 212 219 230 244 257 267 278 287 291 293 297 300 301 302 303 304 305 305 303 302 300 296 293 291 291 291 287 283 282 279 276 275
318 317 316 313 310 311 312 311 311 312 313 311 307 307 307 305 306 305 301 298 297 299 297 292 290 288 285 284 283 282 281 280 275 271 270 268 262 251 236 227 227 231 230 224 220 217 209 203 201 199 198 201 205 211 225 239 252 266 275 281 287 290 294 299 301 303 303 304 308 309 306 306 305 299 293 293 294 293 292 287 283 280 277 275 275
316 313 311 311 309 307 307 306 306 307 310 311 309 308 307 306 306 303 298 296 295 294 292 289 288 287 284 284 283 283 284 282 275 270 267 262 253 243 237 236 238 236 231 223 212 202 193 187 187 189 191 196 205 217 233 248 262 273 279 284 289 295 300 302 303 304 305 307 309 306 300 299 296 289 289 293 297 297 295 290 283 277 274 275 276
312 311 312 312 308 302 299 298 299 302 306 308 307 306 305 304 303 299 296 295 294 291 289 288 287 286 284 282 281 281 282 279 274 268 260 253 251 249 246 245 242 233 222 206 191 185 183 179 177 177 181 192 207 223 242 259 271 281 287 293 299 303 305 306 306 308 309 309 306 300 294 289 283 284 291 298 298 296 293 288 281 275 275 277 277
308 309 311 311 307 303 299 296 295 296 298 300 300 300 300 300 298 295 295 295 292 290 288 288 288 287 284 281 280 279 278 274 266 254 247 247 251 249 243 238 230 213 195 182 175 173 173 170 169 173 183 200 228 249 261 270 281 292 300 306 310 311 312 312 312 312 312 309 303 298 294 288 288 296 303 304 300 296 290 285 281 280 280 281 278
305 305 306 305 303 300 296 292 290 290 291 293 294 295 296 295 292 291 291 291 289 288 288 288 287 286 283 280 276 274 271 265 251 242 241 243 243 235 225 216 202 185 174 169 167 168 169 169 171 181 197 220 246 256 267 289 311 317 318 320 322 321 319 318 315 314 313 310 306 303 298 296 301 306 306 302 298 293 288 285 284 283 282 281 279
298 298 297 297 296 293 289 285 284 284 286 288 288 289 289 289 289 290 290 290 290 289 288 287 286 283 280 277 273 267 259 246 238 238 235 231 223 210 195 186 178 169 163 162 161 159 158 157 154 154 159 164 166 166 40 11 349 335 332 331 330 328 326 323 320 316 315 313 312 311 310 311 312 312 309 306 303 299 297 295 294 292 288 283 278
293 291 289 288 287 285 282 280 279 280 283 284 283 282 282 284 287 289 288 288 288 288 287 285 284 281 277 271 263 252 239 232 233 232 223 213 202 184 169 165 161 158 156 154 150 144 140 139 137 134 134 133 118 85 47 28 10 356 350 346 343 341 338 335 332 327 322 321 321 321 321 320 318 316 315 314 309 306 306 304 301 300 295 288 280
286 285 283 282 282 280 279 278 278 279 282 282 280 279 279 281 282 283 284 286 286 286 285 283 280 275 265 254 243 235 230 225 220 212 200 189 176 164 158 156 155 154 152 148 143 139 135 132 128 123 119 111 94 72 43 23 13 4 358 354 352 349 346 343 340 333 326 323 323 323 322 320 319 318 317 312 307 307 309 308 306 303 296 287 281
282 281 279 279 280 280 279 278 279 280 282 282 281 280 281 281 280 280 283 285 285 285 283 279 273 261 247 239 235 231 223 207 192 182 172 163 157 154 151 149 148 146 142 137 134 129 122 117 113 110 108 103 87 63 39 26 17 8 1 356 352 350 347 343 336 326 318 317 318 319 319 318 318 317 315 312 311 310 308 305 302 297 289 281 275
281 280 279 279 279 279 280 279 280 282 283 283 283 283 283 281 280 282 285 286 285 283 276 267 261 252 241 231 224 211 187 165 156 152 148 145 145 144 141 138 137 136 133 129 125 121 116 112 109 106 103 97 80 51 33 26 18 10 4 359 355 351 346 340 332 323 321 322 322 320 317 314 312 310 309 308 306 303 299 295 292 290 286 280 275
283 281 279 279 279 279 280 280 281 284 285 285 286 285 281 280 283 287 289 286 281 276 268 258 252 240 216 186 166 154 145 140 138 138 137 137 138 138 137 134 131 129 129 127 122 117 113 110 107 102 91 79 64 43 30 24 17 11 6 2 359 355 350 346 340 332 329 328 325 319 312 310 310 309 309 308 306 302 299 296 293 291 289 285 281
284 282 279 278 277 278 279 278 279 282 283 284 285 281 278 283 291 295 294 283 268 258 245 232 215 189 165 151 145 141 139 137 137 138 138 138 137 135 133 130 126 125 123 119 114 109 103 97 92 85 75 64 52 38 28 22 16 11 7 3 2 0 358 353 347 341 338 334 323 315 313 312 311 312 311 311 310 308 304 301 299 297 296 293 289
283 281 279 278 277 276 276 276 277 279 280 282 281 278 281 292 299 300 294 253 221 200 180 169 159 150 143 140 139 140 139 139 139 139 137 135 132 130 127 123 121 118 114 108 102 96 89 82 75 68 59 51 42 31 23 20 16 11 7 3 2 5 6 2 355 352 351 340 318 314 316 314 312 314 314 314 314 311 308 307 307 307 306 305 300
Height
1498 1499 1501 1504 1505 1507 1509 1510 1512 1513 1515 1516 1517 1519 1520 1521 1522 1522 1523 1524 1525 1526 1527 1528 1529 1530 1530 1530 1531 1531 1531 1531 1531 1532 1532 1532 1532 1532 1532 1532 1532 1532 1532 1532 1532 1532 1533 1533 1533 1534 1535 1535 1535 1535 1535 1536 1536 1536 1536 1536 1537 1537 1537 1538 1538 1539 1540 1540 1541 1542 1542 1543 1544 1544 1546 1547 1547 1547 1549 1550 1551 1552 1553 1553 1553
1497 1497 1500 1503 1503 1505 1507 1508 1510 1511 1513 1514 1516 1517 1519 1520 1521 1522 1523 1524 1524 1525 1527 1527 1528 1529 1530 1530 1531 1531 1531 1532 1532 1532 1531 1531 1531 1531 1531 1531 1531 1531 1532 1532 1532 1532 1532 1533 1533 1534 1534 1535 1535 1535 1535 1535 1535 1535 1535 1535 1535 1535 1535 1536 1536 1538 1539 1540 1541 1542 1542 1542 1542 1543 1544 1545 1545 1546 1547 1548 1549 1550 1551 1552 1552
1495 1496 1498 1500 1502 1503 1505 1506 1508 1510 1511 1513 1514 1516 1518 1519 1520 1521 1522 1523 1524 1525 1526 1527 1527 1528 1529 1530 1530 1531 1531 1531 1531 1531 1531 1531 1531 1531 1531 1531 1531 1532 1532 1532 1532 1532 1532 1533 1533 1534 1534 1534 1534 1534 1534 1534 1535 1535 1535 1535 1535 1534 1534 1534 1535 1537 1538 1539 1540 1542 1542 1542 1541 1542 1542 1542 1543 1544 1545 1547 1548 1548 1549 1550 1551
1494 1495 1496 1498 1500 1501 1502 1504 1506 1508 1509 1511 1512 1514 1516 1517 1519 1520 1522 1522 1523 1524 1525 1526 1526 1527 1528 1529 1529 1530 1530 1531 1531 1531 1531 1531 1531 1531 1531 1531 1531 1532 1532 1532 1533 1532 1532 1533 1534 1534 1534 1534 1534 1534 1534 1534 1534 1534 1534 1534 1534 1534 1534 1534 1535 1535 1537 1538 1539 1540 1541 1541 1540 1540 1540 1539 1541 1542 1544 1545 1546 1547 1548 1549 1549
1492 1493 1494 1495 1496 1498 1499 1502 1504 1505 1507 1508 1510 1512 1514 1516 1518 1519 1521 1522 1522 1523 1524 1525 1526 1526 1528 1529 1529 1530 1530 1531 1531 1532 1532 1532 1532 1532 1531 1531 1531 1532 1532 1532 1533 1532 1533 1533 1534 1534 1534 1534 1534 1535 1535 1535 1535 1535 1534 1534 1533 1533 1533 1534 1534 1534 1535 1536 1537 1538 1539 1539 1539 1539 1539 1539 1540 1541 1542 1544 1544 1545 1546 1547 1548
1491 1491 1492 1493 1494 1495 1497 1499 1501 1503 1505 1507 1508 1510 1513 1515 1517 1518 1520 1521 1522 1522 1523 1524 1525 1526 1527 1528 1529 1530 1531 1531 1532 1532 1532 1532 1532 1532 1532 1532 1532 1532 1532 1532 1532 1532 1532 1533 1533 1534 1534 1534 1534 1534 1534 1534 1535 1535 1534 1534 1534 1533 1533 1533 1534 1534 1535 1535 1536 1536 1537 1537 1538 1538 1539 1540 1540 1540 1541 1542 1542 1542 1544 1545 1546
1488 1489 1491 1491 1492 1493 1494 1496 1498 1501 1503 1505 1506 1509 1512 1514 1515 1517 1518 1520 1521 1521 1522 1523 1525 1526 1527 1528 1529 1530 1531 1532 1532 1532 1532 1533 1533 1533 1533 1533 1532 1532 1532 1532 1532 1532 1532 1532 1533 1533 1533 1533 1533 1533 1533 1533 1534 1534 1534 1534 1534 1534 1534 1534 1535 1535 1535 1535 1535 1535 1536 1537 1537 1538 1538 1540 1540 1540 1540 1540 1541 1542 1542 1542 1543
1487 1487 1488 1489 1490 1490 1491 1493 1496 1499 1501 1503 1504 1507 1510 1512 1513 1515 1517 1519 1520 1521 1522 1523 1524 1525 1527 1528 1529 1530 1531 1531 1531 1532 1532 1533 1533 1533 1533 1533 1533 1533 1533 1533 1533 1533 1533 1533 1533 1533 1533 1533 1533 1533 1533 1533 1533 1533 1533 1533 1533 1534 1534 1535 1536 1536 1536 1536 1535 1536 1536 1537 1537 1537 1538 1539 1539 1539 1539 1539 1541 1542 1541 1541 1541
1484 1485 1486 1487 1488 1488 1489 1490 1493 1497 1499 1500 1502 1505 1508 1510 1512 1514 1515 1517 1518 1520 1521 1522 1523 1525 1526 1527 1528 1529 1530 1531 1531 1532 1532 1532 1533 1533 1533 1533 1533 1533 1534 1533 1534 1533 1533 1533 1533 1533 1534 1534 1534 1534 1534 1534 1534 1534 1534 1534 1534 1534 1534 1535 1535 1536 1536 1536 1536 1537 1537 1537 1537 1537 1537 1538 1539 1539 1539 1539 1540 1540 1540 1540 1539
1483 1483 1483 1484 1485 1486 1487 1488 1490 1493 1496 1498 1500 1503 1506 1508 1510 1512 1514 1516 1517 1519 1520 1521 1522 1524 1525 1526 1527 1528 1529 1530 1531 1531 1532 1532 1533 1533 1533 1534 1534 1534 1534 1534 1534 1534 1534 1534 1534 1534 1534 1534 1535 1535 1535 1535 1534 1534 1534 1534 1534 1534 1534 1535 1535 1535 1535 1535 1536 1537 1537 1538 1538 1538 1538 1539 1539 1539 1539 1538 1538 1538 1538 1538 1538
1482 1481 1481 1481 1482 1483 1485 1485 1487 1490 1493 1496 1497 1500 1503 1506 1508 1510 1512 1514 1516 1517 1519 1520 1521 1523 1524 1525 1526 1527 1528 1529 1530 1531 1532 1532 1533 1533 1534 1534 1534 1534 1534 1534 1534 1534 1535 1535 1535 1535 1535 1535 1535 1535 1535 1535 1535 1535 1535 1535 1535 1535 1535 1535 1535 1535 1535 1535 1536 1536 1537 1537 1538 1538 1539 1539 1539 1539 1539 1538 1538 1537 1537 1537 1537
1480 1480 1479 1478 1478 1480 1481 1482 1484 1486 1489 1492 1494 1497 1501 1504 1506 1508 1510 1512 1514 1516 1517 1519 1520 1522 1523 1525 1526 1527 1528 1529 1530 1531 1532 1532 1533 1533 1534 1534 1534 1534 1534 1535 1535 1535 1535 1535 1535 1536 1536 1536 1536 1536 1536 1536 1536 1536 1536 1536 1536 1536 1536 1536 1536 1535 1535 1535 1536 1536 1536 1536 1537 1537 1537 1538 1538 1538 1538 1538 1538 1537 1537 1537 1536
1480 1479 1478 1477 1477 1478 1479 1481 1482 1483 1486 1489 1492 1494 1498 1501 1504 1506 1508 1510 1512 1514 1516 1518 1519 1521 1522 1524 1525 1526 1527 1528 1529 1531 1531 1532 1533 1533 1534 1534 1534 1534 1535 1535 1535 1535 1535 1535 1536 1536 1536 1536 1536 1537 1537 1537 1537 1537 1537 1536 1536 1536 1536 1536 1536 1536 1536 1536 1535 1536 1536 1536 1536 1536 1536 1536 1536 1536 1537 1537 1537 1537 1536 1536 1535
1480 1478 1478 1477 1476 1477 1479 1480 1482 1482 1484 1487 1490 1492 1495 1499 1502 1504 1506 1509 1511 1512 1514 1516 1518 1519 1521 1522 1524 1525 1526 1528 1529 1530 1531 1532 1533 1533 1533 1534 1534 1534 1535 1535 1535 1535 1535 1535 1536 1536 1536 1536 1537 1537 1537 1537 1537 1537 1537 1537 1536 1536 1536 1536 1536 1536 1536 1536 1535 1535 1535 1535 1535 1535 1535 1535 1535 1535 1536 1536 1536 1536 1535 1535 1534
1480 1478 1478 1477 1477 1477 1478 1480 1481 1481 1482 1485 1488 1490 1493 1497 1500 1503 1505 1507 1509 1511 1513 1515 1517 1518 1520 1521 1523 1524 1525 1526 1528 1529 1530 1531 1532 1532 1532 1533 1534 1534 1534 1534 1534 1535 1535 1535 1535 1536 1536 1536 1536 1536 1536 1536 1537 1537 1537 1536 1536 1536 1536 1535 1535 1535 1535 1535 1535 1535 1535 1535 1534 1534 1534 1534 1534 1534 1535 1535 1535 1535 1535 1534 1533
1480 1479 1478 1478 1478 1478 1478 1479 1481 1481 1482 1484 1487 1489 1492 1495 1498 1501 1504 1506 1508 1510 1511 1513 1515 1517 1518 1519 1521 1522 1524 1525 1526 1527 1528 1529 1530 1531 1531 1532 1533 1533 1533 1533 1534 1534 1535 1535 1535 1535 1535 1536 1536 1536 1536 1536 1536 1536 1536 1536 1536 1536 1535 1535 1535 1534 1534 1534 1534 1534 1534 1534 1534 1533 1533 1533 1533 1533 1533 1534 1534 1535 1535 1533 1532
1481 1479 1479 1479 1479 1479 1479 1480 1481 1481 1483 1485 1487 1489 1492 1495 1497 1500 1502 1505 1506 1509 1510 1512 1513 1515 1516 1518 1519 1521 1522 1523 1524 1525 1526 1527 1528 1529 1530 1531 1532 1532 1532 1533 1533 1534 1534 1534 1534 1534 1535 1535 1535 1535 1535 1535 1535 1535 1535 1535 1535 1535 1535 1535 1535 1534 1534 1534 1534 1534 1534 1534 1533 1533 1533 1533 1532 1532 1532 1532 1533 1533 1533 1533 1532
1482 1480 1480 1480 1479 1479 1479 1480 1481 1482 1484 1485 1487 1489 1491 1494 1496 1498 1501 1503 1505 1507 1508 1510 1511 1513 1515 1516 1517 1519 1520 1521 1522 1523 1524 1526 1527 1528 1529 1529 1530 1531 1531 1532 1532 1533 1533 1534 1534 1534 1534 1534 1534 1534 1534 1534 1534 1534 1534 1534 1534 1535 1535 1534 1534 1534 1534 1533 1533 1533 1533 1533 1532 1532 1532 1532 1532 1531 1531 1531 1531 1531 1531 1531 1531
1484 1482 1482 1481 1480 1480 1480 1480 1481 1482 1484 1485 1486 1488 1490 1493 1495 1497 1499 1501 1503 1505 1506 1508 1509 1511 1512 1514 1515 1517 1518 1519 1520 1521 1522 1523 1525 1526 1527 1528 1529 1530 1530 1531 1531 1532 1532 1533 1533 1533 1533 1533 1533 1533 1533 1533 1534 1533 1533 1533 1533 1534 1534 1533 1533 1533 1533 1533 1533 1532 1532 1532 1532 1531 1531 1531 1531 1530 1530 1530 1530 1530 1529 1529 1528
1486 1485 1484 1483 1482 1482 1482 1482 1482 1483 1484 1485 1485 1486 1488 1492 1494 1496 1498 1499 1502 1503 1504 1507 1508 1509 1510 1512 1513 1515 1516 1517 1518 1519 1520 1521 1523 1524 1525 1526 1527 1528 1528 1529 1529 1530 1531 1531 1532 1532 1532 1532 1532 1532 1532 1532 1532 1532 1532 1532 1532 1532 1533 1532 1532 1532 1532 1532 1532 1532 1531 1531 1531 1531 1530 1530 1529 1529 1528 1528 1528 1528 1528 1527 1526
1488 1487 1486 1485 1485 1484 1484 1484 1484 1484 1484 1485 1487 1487 1488 1491 1493 1495 1496 1498 1500 1502 1503 1504 1506 1508 1509 1510 1511 1512 1514 1515 1516 1517 1518 1520 1521 1522 1523 1524 1524 1525 1526 1527 1527 1528 1528 1529 1530 1530 1531 1531 1531 1531 1531 1531 1531 1531 1531 1531 1531 1531 1532 1531 1531 1531 1531 1531 1531 1531 1530 1530 1529 1529 1529 1529 1528 1528 1527 1527 1526 1526 1526 1525 1524
1489 1489 1488 1487 1487 1487 1486 1486 1485 1485 1485 1486 1489 1489 1488 1490 1492 1494 1495 1496 1498 1501 1501 1502 1504 1506 1507 1507 1508 1510 1511 1513 1514 1515 1516 1517 1518 1519 1520 1521 1522 1523 1524 1524 1525 1525 1526 1527 1527 1528 1528 1529 1529 1529 1529 1530 1530 1529 1529 1529 1529 1529 1530 1530 1530 1530 1530 1529 1529 1530 1529 1529 1528 1527 1527 1527 1527 1526 1525 1525 1525 1525 1524 1523 1523
1491 1490 1489 1489 1489 1489 1489 1488 1488 1487 1487 1488 1489 1489 1488 1490 1492 1494 1494 1495 1496 1499 1499 1499 1502 1504 1505 1505 1505 1506 1507 1509 1510 1511 1512 1514 1515 1516 1517 1518 1519 1520 1521 1522 1522 1522 1523 1523 1524 1525 1525 1526 1526 1527 1527 1527 1527 1527 1527 1527 1527 1527 1527 1528 1528 1528 1528 1528 1528 1528 1528 1527 1526 1526 1525 1525 1525 1524 1523 1523 1523 1522 1521 1520 1520
1492 1491 1491 1491 1491 1491 1491 1491 1491 1490 1490 1489 1489 1489 1489 1491 1492 1493 1494 1494 1495 1497 1497 1497 1500 1503 1503 1502 1502 1502 1504 1505 1506 1508 1508 1510 1511 1512 1513 1514 1516 1517 1517 1518 1519 1519 1519 1520 1521 1522 1522 1523 1523 1524 1524 1524 1524 1524 1524 1524 1524 1525 1525 1525 1525 1526 1526 1526 1526 1526 1526 1525 1525 1524 1524 1523 1523 1522 1521 1521 1520 1519 1518 1517 1516
1492 1492 1492 1492 1492 1492 1492 1492 1492 1492 1491 1491 1491 1491 1492 1492 1493 1493 1494 1494 1495 1496 1495 1495 1500 1501 1500 1500 1499 1499 1500 1501 1502 1504 1505 1506 1507 1508 1508 1509 1510 1512 1512 1514 1515 1516 1517 1518 1518 1519 1520 1520 1520 1521 1521 1521 1521 1521 1522 1522 1522 1522 1522 1522 1523 1523 1523 1523 1523 1523 1523 1523 1522 1522 1521 1521 1520 1520 1519 1518 1517 1517 1517 1516 1514
1493 1493 1492 1492 1492 1492 1492 1492 1493 1493 1493 1493 1493 1494 1494 1494 1495 1495 1495 1496 1495 1495 1494 1495 1498 1498 1498 1499 1498 1497 1497 1498 1500 1501 1502 1504 1505 1505 1505 1505 1506 1507 1508 1509 1512 1514 1516 1516 1515 1516 1516 1516 1516 1517 1518 1518 1518 1518 1519 1519 1519 1519 1520 1519 1520 1520 1520 1520 1520 1520 1519 1519 1519 1519 1518 1518 1517 1517 1516 1515 1515 1514 1514 1513 1512
1493 1493 1493 1492 1492 1493 1493 1493 1493 1493 1494 1494 1495 1495 1495 1496 1496 1496 1496 1495 1495 1494 1494 1495 1496 1496 1497 1497 1497 1497 1496 1496 1497 1498 1499 1500 1502 1503 1503 1503 1503 1503 1504 1505 1507 1510 1511 1512 1512 1511 1512 1512 1513 1513 1514 1515 1515 1515 1516 1516 1517 1517 1517 1517 1517 1517 1517 1517 1517 1517 1517 1516 1516 1516 1515 1515 1514 1513 1513 1512 1511 1511 1510 1509 1508
1492 1492 1493 1493 1493 1493 1493 1493 1493 1493 1494 1494 1495 1495 1495 1495 1495 1495 1495 1494 1494 1494 1494 1495 1495 1495 1495 1495 1495 1496 1496 1495 1495 1495 1495 1496 1497 1499 1500 1500 1500 1500 1500 1500 1502 1505 1505 1506 1508 1508 1509 1510 1510 1510 1511 1511 1511 1511 1512 1514 1514 1514 1514 1514 1515 1515 1514 1514 1514 1514 1513 1513 1513 1513 1512 1512 1511 1511 1510 1509 1508 1508 1507 1506 1505
1492 1492 1492 1493 1493 1493 1492 1493 1493 1493 1493 1493 1494 1494 1494 1494 1494 1494 1493 1493 1493 1493 1493 1494 1494 1493 1493 1493 1493 1494 1494 1494 1494 1493 1493 1493 1493 1495 1495 1496 1496 1497 1497 1496 1498 1500 1500 1500 1503 1504 1506 1507 1508 1508 1508 1508 1508 1508 1509 1511 1511 1512 1512 1512 1512 1512 1512 1512 1511 1511 1510 1509 1509 1509 1509 1509 1508 1508 1507 1505 1505 1505 1504 1503 1502
1492 1492 1492 1493 1493 1492 1492 1492 1492 1492 1492 1492 1493 1493 1493 1493 1493 1492 1492 1492 1492 1492 1492 1492 1492 1491 1491 1491 1492 1492 1492 1492 1492 1492 1491 1491 1491 1491 1492 1492 1492 1493 1494 1494 1494 1496 1496 1497 1499 1501 1503 1504 1504 1503 1504 1504 1506 1506 1507 1508 1508 1509 1509 1509 1510 1510 1509 1509 1508 1508 1507 1506 1505 1505 1505 1504 1504 1504 1503 1502 1501 1501 1500 1499 1498
1491 1492 1492 1492 1492 1492 1492 1492 1491 1491 1491 1491 1492 1491 1492 1492 1492 1491 1491 1491 1491 1491 1490 1490 1490 1490 1490 1489 1489 1489 1489 1489 1489 1489 1489 1489 1489 1489 1489 1489 1490 1490 1491 1491 1491 1493 1494 1495 1498 1499 1500 1499 1499 1500 1501 1502 1504 1504 1505 1506 1506 1506 1506 1507 1507 1507 1506 1506 1505 1505 1504 1503 1502 1501 1500 1500 1499 1498 1498 1498 1497 1496 1496 1495 1494
1490 1491 1491 1492 1492 1492 1492 1491 1491 1491 1491 1491 1491 1490 1491 1491 1491 1490 1489 1489 1489 1489 1488 1488 1488 1487 1487 1487 1487 1487 1486 1486 1486 1486 1487 1487 1487 1487 1487 1487 1487 1487 1487 1488 1489 1490 1490 1492 1494 1495 1494 1495 1496 1498 1500 1500 1501 1502 1503 1504 1504 1504 1504 1504 1504 1504 1503 1503 1502 1502 1501 1500 1499 1498 1497 1496 1495 1493 1492 1492 1491 1491 1490 1490 1489
1490 1490 1491 1491 1491 1491 1491 1491 1490 1491 1491 1490 1490 1490 1490 1490 1489 1488 1488 1487 1487 1487 1487 1486 1486 1485 1485 1484 1484 1484 1484 1484 1484 1484 1484 1484 1484 1484 1484 1484 1485 1484 1484 1485 1486 1487 1487 1489 1490 1490 1490 1491 1494 1495 1497 1498 1499 1500 1501 1502 1501 1501 1502 1502 1501 1501 1500 1500 1499 1498 1497 1496 1495 1494 1493 1492 1491 1490 1488 1486 1485 1484 1484 1483 1483
1489 1490 1490 1490 1490 1491 1490 1490 1490 1490 1489 1489 1489 1489 1488 1488 1488 1487 1486 1486 1486 1485 1485 1484 1483 1483 1482 1482 1481 1481 1481 1481 1481 1481 1481 1481 1481 1481 1481 1482 1482 1482 1482 1482 1483 1484 1485 1485 1486 1486 1487 1488 1490 1492 1494 1495 1496 1497 1498 1498 1498 1499 1499 1499 1498 1498 1497 1496 1496 1495 1494 1493 1492 1490 1489 1488 1487 1486 1485 1483 1482 1480 1479 1478 1477
1488 1489 1489 1489 1489 1489 1489 1489 1489 1488 1488 1487 1487 1486 1486 1485 1485 1485 1484 1484 1483 1483 1482 1481 1481 1480 1479 1479 1479 1478 1478 1478 1478 1478 1478 1478 1478 1478 1478 1478 1479 1480 1480 1480 1480 1481 1481 1482 1482 1482 1484 1486 1488 1490 1491 1493 1494 1494 1495 1496 1496 1496 1496 1496 1495 1494 1494 1493 1492 1491 1491 1489 1488 1487 1486 1484 1483 1482 1481 1479 1478 1477 1476 1475 1474
1487 1488 1488 1488 1488 1488 1487 1487 1487 1486 1486 1486 1485 1484 1484 1483 1482 1482 1481 1481 1480 1480 1479 1479 1478 1477 1477 1477 1476 1476 1475 1475 1475 1475 1475 1475 1475 1475 1475 1475 1476 1477 1477 1477 1477 1478 1478 1478 1479 1480 1482 1484 1486 1488 1489 1491 1492 1492 1493 1494 1493 1494 1493 1492 1492 1491 1490 1489 1488 1487 1487 1485 1484 1483 1482 1480 1478 1478 1476 1475 1473 1472 1471 1470 1469
1486 1486 1486 1486 1486 1486 1485 1485 1484 1484 1484 1484 1483 1483 1481 1481 1480 1480 1479 1478 1478 1477 1477 1476 1476 1475 1475 1474 1473 1473 1472 1472 1472 1472 1472 1472 1472 1472 1472 1472 1473 1473 1473 1473 1474 1474 1474 1475 1476 1478 1480 1482 1484 1486 1487 1488 1489 1490 1491 1492 1492 1492 1491 1490 1489 1488 1487 1486 1485 1483 1483 1482 1480 1479 1478 1476 1474 1473 1472 1470 1468 1467 1466 1465 1464
1485 1484 1484 1485 1484 1484 1484 1483 1482 1482 1482 1482 1481 1480 1479 1479 1478 1478 1477 1476 1476 1475 1474 1474 1473 1472 1472 1471 1470 1470 1470 1469 1469 1469 1468 1468 1468 1469 1469 1469 1469 1469 1469 1469 1470 1471 1472 1473 1475 1477 1479 1481 1483 1484 1485 1486 1487 1488 1489 1490 1490 1490 1489 1488 1487 1486 1484 1483 1481 1479 1478 1477 1476 1475 1473 1472 1471 1470 1468 1466 1464 1463 1461 1459 1459
1483 1483 1483 1483 1482 1481 1481 1481 1480 1480 1480 1479 1479 1478 1477 1476 1476 1475 1474 1473 1473 1472 1471 1470 1470 1469 1468 1467 1467 1466 1466 1466 1466 1465 1465 1465 1465 1465 1465 1465 1465 1466 1466 1466 1467 1468 1470 1472 1475 1477 1478 1480 1482 1483 1484 1485 1485 1486 1487 1488 1488 1488 1486 1485 1484 1483 1481 1480 1478 1476 1474 1472 1471 1470 1469 1468 1467 1466 1464 1462 1461 1458 1456 1454 1454
1481 1481 1480 1480 1479 1479 1479 1478 1478 1478 1477 1476 1476 1475 1474 1473 1473 1472 1471 1471 1470 1469 1468 1467 1466 1465 1464 1464 1463 1462 1462 1462 1462 1462 1462 1462 1461 1461 1461 1462 1462 1463 1463 1464 1464 1466 1468 1471 1474 1476 1478 1479 1481 1482 1483 1483 1484 1484 1484 1485 1486 1485 1483 1482 1481 1480 1478 1476 1475 1474 1472 1470 1468 1466 1465 1464 1463 1462 1460 1458 1456 1454 1451 1450 1450
1479 1478 1477 1477 1477 1476 1476 1476 1476 1475 1475 1474 1473 1472 1471 1470 1470 1469 1468 1468 1467 1466 1465 1464 1463 1462 1461 1460 1460 1459 1458 1458 1458 1458 1458 1457 1457 1457 1458 1459 1460 1461 1461 1462 1464 1465 1468 1470 1473 1475 1477 1479 1481 1481 1482 1482 1482 1482 1482 1483 1483 1482 1480 1479 1477 1476 1475 1473 1472 1471 1470 1468 1465 1462 1461 1460 1458 1457 1455 1453 1451 1448 1446 1445 1445
1476 1475 1475 1474 1474 1473 1473 1473 1473 1473 1472 1471 1470 1469 1468 1468 1467 1466 1465 1464 1464 1462 1462 1461 1459 1458 1457 1456 1455 1455 1454 1454 1454 1454 1454 1453 1453 1454 1455 1457 1458 1459 1460 1462 1464 1466 1468 1470 1472 1474 1476 1478 1480 1481 1481 1481 1481 1480 1480 1481 1480 1479 1477 1476 1474 1473 1472 1470 1469 1467 1466 1464 1461 1458 1456 1455 1453 1452 1450 1447 1445 1443 1442 1441 1440
1474 1473 1473 1472 1471 1471 1471 1471 1471 1470 1470 1469 1467 1466 1465 1465 1464 1463 1462 1461 1460 1459 1458 1457 1456 1454 1453 1452 1451 1451 1450 1450 1450 1450 1450 1450 1450 1452 1453 1454 1457 1458 1460 1462 1464 1466 1468 1470 1472 1473 1475 1477 1480 1480 1480 1480 1479 1479 1479 1478 1477 1476 1475 1473 1472 1470 1468 1466 1464 1463 1461 1459 1456 1454 1452 1450 1448 1447 1444 1442 1440 1439 1437 1436 1435
1472 1471 1471 1470 1469 1469 1468 1468 1468 1468 1467 1466 1464 1463 1462 1461 1461 1460 1459 1458 1457 1456 1455 1453 1452 1450 1449 1448 1448 1447 1447 1446 1445 1445 1446 1447 1449 1450 1451 1454 1456 1459 1461 1463 1465 1467 1469 1471 1472 1474 1475 1477 1479 1480 1479 1478 1478 1478 1477 1476 1475 1474 1472 1471 1469 1466 1464 1462 1460 1458 1456 1454 1451 1449 1447 1445 1443 1441 1439 1437 1435 1434 1433 1432 1430
1469 1469 1468 1468 1467 1466 1466 1465 1465 1465 1464 1463 1462 1460 1459 1458 1458 1457 1456 1455 1454 1453 1451 1449 1448 1446 1445 1444 1443 1442 1442 1442 1441 1442 1443 1445 1447 1449 1451 1454 1457 1460 1462 1463 1465 1467 1470 1471 1473 1475 1476 1477 1478 1478 1477 1477 1476 1476 1475 1474 1473 1471 1470 1467 1465 1463 1460 1458 1456 1453 1451 1448 1446 1444 1441 1439 1438 1436 1434 1433 1431 1429 1428 1427 1425
1466 1466 1465 1465 1464 1463 1463 1462 1462 1461 1460 1459 1458 1457 1456 1455 1455 1454 1453 1452 1450 1449 1447 1445 1443 1442 1441 1440 1439 1438 1438 1438 1439 1440 1441 1444 1446 1449 1451 1454 1458 1461 1462 1464 1466 1468 1469 1471 1473 1474 1475 1476 1476 1476 1475 1475 1474 1473 1473 1471 1470 1468 1466 1463 1461 1459 1457 1454 1451 1449 1446 1444 1441 1439 1438 1436 1434 1432 1431 1429 1427 1426 1425 1423 1422
1463 1463 1462 1461 1461 1460 1460 1459 1458 1458 1457 1456 1455 1454 1453 1452 1451 1450 1450 1448 1447 1444 1442 1440 1438 1437 1437 1436 1435 1435 1435 1436 1437 1439 1441 1444 1447 1450 1452 1455 1458 1461 1463 1465 1466 1468 1469 1470 1472 1473 1474 1475 1475 1475 1474 1473 1473 1472 1471 1470 1468 1466 1464 1461 1459 1457 1455 1452 1449 1446 1443 1441 1439 1437 1435 1434 1432 1430 1428 1427 1425 1424 1423 1421 1420
1459 1459 1459 1458 1457 1457 1456 1455 1455 1454 1453 1453 1452 1451 1450 1448 1447 1447 1446 1444 1442 1439 1437 1435 1434 1433 1433 1433 1433 1434 1434 1436 1438 1441 1444 1447 1450 1452 1454 1457 1460 1462 1464 1466 1467 1468 1469 1470 1471 1473 1474 1474 1474 1473 1472 1472 1471 1471 1469 1468 1467 1464 1462 1460 1458 1455 1452 1449 1446 1443 1441 1440 1438 1436 1434 1432 1430 1428 1427 1425 1423 1422 1420 1419 1417
1456 1456 1455 1454 1454 1453 1452 1452 1451 1450 1450 1449 1448 1447 1446 1445 1444 1443 1441 1440 1437 1435 1433 1432 1431 1431 1431 1432 1433 1434 1436 1438 1442 1444 1447 1450 1453 1455 1457 1459 1461 1464 1465 1467 1467 1468 1469 1470 1471 1472 1472 1472 1472 1471 1471 1470 1470 1468 1467 1466 1464 1462 1460 1457 1454 1452 1448 1445 1443 1442 1440 1439 1437 1434 1432 1430 1428 1426 1424 1422 1421 1419 1417 1415 1413
1452 1452 1451 1451 1450 1449 1449 1448 1448 1447 1447 1446 1445 1444 1442 1442 1441 1439 1437 1436 1434 1432 1431 1431 1430 1430 1431 1431 1433 1436 1439 1442 1445 1447 1449 1452 1454 1457 1459 1460 1463 1465 1466 1467 1468 1468 1469 1470 1470 1470 1470 1471 1471 1470 1470 1469 1468 1467 1465 1464 1462 1460 1457 1454 1452 1449 1446 1443 1442 1441 1440 1437 1435 1433 1431 1428 1426 1424 1422 1419 1417 1415 1413 1411 1409
1449 1448 1447 1446 1446 1446 1445 1445 1444 1444 1444 1443 1442 1441 1439 1439 1438 1436 1435 1433 1432 1432 1431 1431 1432 1432 1433 1434 1436 1439 1442 1445 1447 1449 1451 1453 1455 1458 1460 1463 1464 1466 1467 1468 1468 1468 1469 1469 1469 1469 1470 1470 1469 1469 1469 1468 1467 1466 1464 1462 1460 1458 1455 1453 1449 1446 1443 1442 1442 1441 1438 1436 1434 1431 1429 1426 1424 1421 1419 1416 1414 1411 1409 1407 1405